GW4512 Weather Reports


time (UTC)temp
C
wind
direction
speed
KPH
gust
KPH
rain 1hr
cm
rain 24hr
cm
rain mn
cm
humidity
%
barometer
mb
20260505192707 23 6 9.7 12.9 0.00 0.00 0.00 38 1011.7
20260505192203 23 39 9.7 12.9 0.00 0.00 0.00 35 1011.8
20260505191702 22 312 3.2 4.8 0.00 0.00 0.00 39 1011.7
20260505191200 23 225 6.4 11.3 0.00 0.00 0.00 40 1011.8
20260505190656 22 59 3.2 6.4 0.00 0.00 0.00 44 1011.8
20260505190155 21 184 1.6 1.6 0.00 0.00 0.00 43 1011.7
20260505185652 21 237 0.0 0.0 0.00 0.00 0.00 45 1011.8
20260505185149 21 251 1.6 1.6 0.00 0.00 0.00 43 1011.8
20260505184645 22 221 3.2 3.2 0.00 0.00 0.00 44 1011.8
20260505184142 21 256 0.0 1.6 0.00 0.00 0.00 45 1011.8
20260505183639 21 238 0.0 1.6 0.00 0.00 0.00 45 1011.7
20260505183137 22 248 3.2 3.2 0.00 0.00 0.00 45 1011.7
20260505182633 22 68 3.2 3.2 0.00 0.00 0.00 44 1011.9
20260505182130 21 180 4.8 4.8 0.00 0.00 0.00 46 1011.8
20260505181626 21 217 3.2 3.2 0.00 0.00 0.00 46 1011.8
20260505181124 22 220 0.0 0.0 0.00 0.00 0.00 49 1011.7
20260505180620 22 188 1.6 3.2 0.00 0.00 0.00 44 1011.8
20260505180117 21 223 0.0 0.0 0.00 0.00 0.00 49 1011.9
20260505175613 21 185 4.8 6.4 0.00 0.00 0.00 50 1011.8
20260505175110 20 180 3.2 3.2 0.00 0.00 0.00 48 1012.0
20260505174606 20 215 1.6 1.6 0.00 0.00 0.00 55 1011.9
20260505174102 20 211 0.0 0.0 0.00 0.00 0.00 55 1011.9
20260505173559 20 214 3.2 3.2 0.00 0.00 0.00 54 1011.8
20260505173056 20 204 1.6 3.2 0.00 0.00 0.00 53 1011.7
20260505172554 20 162 4.8 4.8 0.00 0.00 0.00 57 1011.9
20260505172050 19 174 3.2 3.2 0.00 0.00 0.00 53 1011.9
20260505171545 18 169 1.6 3.2 0.00 0.00 0.00 56 1012.0
20260505171042 18 187 1.6 1.6 0.00 0.00 0.00 58 1011.9
20260505170539 18 224 0.0 0.0 0.00 0.00 0.00 59 1012.1
20260505170036 18 200 1.6 3.2 0.00 0.00 0.00 59 1011.9
20260505165531 17 212 0.0 0.0 0.00 0.00 0.00 63 1011.8
20260505165026 17 189 4.8 6.4 0.00 0.00 0.00 61 1012.2
20260505164523 17 183 3.2 3.2 0.00 0.00 0.00 62 1012.0
20260505164021 17 163 3.2 4.8 0.00 0.00 0.00 61 1012.2
20260505163519 16 220 0.0 0.0 0.00 0.00 0.00 63 1012.0
20260505163015 16 183 4.8 4.8 0.00 0.00 0.00 63 1012.1
20260505162509 16 183 3.2 3.2 0.00 0.00 0.00 65 1012.1
20260505162006 15 179 3.2 4.8 0.00 0.00 0.00 65 1012.2
20260505161502 15 187 1.6 1.6 0.00 0.00 0.00 65 1012.1
20260505161000 15 238 3.2 3.2 0.00 0.00 0.00 65 1012.1
20260505160458 15 194 1.6 1.6 0.00 0.00 0.00 68 1012.0
20260505152934 13 201 0.0 1.6 0.00 0.00 0.00 69 1012.1
20260505152431 13 211 1.6 1.6 0.00 0.00 0.00 70 1012.1
20260505151931 13 229 3.2 3.2 0.00 0.00 0.00 72 1012.1
20260505151427 12 206 1.6 3.2 0.00 0.00 0.00 73 1012.1
20260505150925 12 182 3.2 4.8 0.00 0.00 0.00 73 1011.9
20260505150422 12 183 4.8 4.8 0.00 0.00 0.00 72 1012.0
20260505140351 11 220 1.6 1.6 0.00 0.00 0.00 74 1011.4
20260505124805 7 293 3.2 4.8 0.00 0.00 0.00 81 1010.8
20260505124302 7 272 3.2 4.8 0.00 0.00 0.00 80 1010.7
20260505123758 7 309 3.2 3.2 0.00 0.00 0.00 80 1010.7
20260505123255 8 281 3.2 3.2 0.00 0.00 0.00 78 1010.5
20260505122751 8 276 1.6 3.2 0.00 0.00 0.00 77 1010.7
20260505122248 8 265 3.2 3.2 0.00 0.00 0.00 81 1010.6
20260505121745 8 268 3.2 4.8 0.00 0.00 0.00 76 1010.5
20260505121242 8 36 3.2 4.8 0.00 0.00 0.00 79 1010.4
20260505120738 7 259 1.6 1.6 0.00 0.00 0.00 82 1010.4
20260505120234 7 268 1.6 1.6 0.00 0.00 0.00 83 1010.4
20260505115733 7 266 1.6 1.6 0.00 0.00 0.00 82 1010.5
20260505115231 8 265 1.6 1.6 0.00 0.00 0.00 82 1010.4
20260505114728 8 264 1.6 1.6 0.00 0.00 0.00 79 1010.3
20260505114224 8 279 3.2 3.2 0.00 0.00 0.00 79 1010.4
20260505113721 7 278 1.6 1.6 0.00 0.00 0.00 81 1010.4
20260505113217 8 259 0.0 0.0 0.00 0.00 0.00 80 1010.5
20260505112714 8 255 0.0 1.6 0.00 0.00 0.00 79 1010.4
20260505112212 7 257 1.6 1.6 0.00 0.00 0.00 80 1010.3
20260505111711 8 269 1.6 1.6 0.00 0.00 0.00 78 1010.2
20260505111208 8 271 1.6 1.6 0.00 0.00 0.00 79 1010.0
20260505110703 8 275 1.6 3.2 0.00 0.00 0.00 79 1010.2
20260505110201 8 251 1.6 1.6 0.00 0.00 0.00 78 1010.3
20260505102137 8 241 0.0 0.0 0.00 0.00 0.00 79 1009.8
20260505101635 8 237 0.0 0.0 0.00 0.00 0.00 79 1009.9
20260505101131 8 239 0.0 1.6 0.00 0.00 0.00 77 1009.8
20260505100627 10 213 1.6 1.6 0.00 0.00 0.00 75 1009.7
20260505100124 9 239 1.6 1.6 0.00 0.00 0.00 73 1009.8
20260505095620 9 289 1.6 1.6 0.00 0.00 0.00 76 1009.9
20260505095117 8 260 1.6 3.2 0.00 0.00 0.00 78 1009.8
20260505094614 8 242 1.6 1.6 0.00 0.00 0.00 81 1009.6
20260505094110 8 240 1.6 1.6 0.00 0.00 0.00 82 1009.6
20260505093606 8 278 3.2 3.2 0.00 0.00 0.00 81 1009.5
20260505093104 8 269 3.2 3.2 0.00 0.00 0.00 78 1009.7
20260505092601 9 272 1.6 1.6 0.00 0.00 0.00 77 1009.5
20260505092100 10 265 1.6 1.6 0.00 0.00 0.00 76 1009.4
20260505091556 10 249 0.0 1.6 0.00 0.00 0.00 76 1009.7
20260505091054 10 258 1.6 1.6 0.00 0.00 0.00 74 1009.5
20260505090552 10 255 0.0 1.6 0.00 0.00 0.00 76 1009.5
20260505090050 10 250 0.0 1.6 0.00 0.00 0.00 76 1009.5
20260505085547 9 252 0.0 1.6 0.00 0.00 0.00 77 1009.6
20260505085045 8 274 1.6 1.6 0.00 0.00 0.00 78 1009.5
20260505084543 8 276 1.6 3.2 0.00 0.00 0.00 79 1009.4
20260505084041 8 267 1.6 3.2 0.00 0.00 0.00 80 1009.4
20260505083538 8 353 4.8 4.8 0.00 0.00 0.00 80 1009.4
20260505083034 8 305 4.8 4.8 0.00 0.00 0.00 80 1009.5
20260505082530 9 356 3.2 4.8 0.00 0.00 0.00 79 1009.4
20260505082027 10 296 1.6 3.2 0.00 0.00 0.00 76 1009.4
20260505081523 10 278 3.2 4.8 0.00 0.00 0.00 75 1009.4
20260505081021 10 258 1.6 1.6 0.00 0.00 0.00 74 1009.4
20260505080517 10 272 3.2 3.2 0.00 0.00 0.00 72 1009.3
20260505080014 10 318 3.2 3.2 0.00 0.00 0.00 74 1009.4
20260505075509 11 293 1.6 3.2 0.00 0.00 0.00 71 1009.5
20260505075006 10 299 3.2 3.2 0.00 0.00 0.00 72 1009.5
20260505074504 10 270 1.6 3.2 0.00 0.00 0.00 73 1009.7
20260505074001 10 281 3.2 3.2 0.00 0.00 0.00 74 1009.3
20260505073458 11 288 3.2 4.8 0.00 0.00 0.00 71 1009.5
20260505072956 11 283 3.2 3.2 0.00 0.00 0.00 70 1009.3
20260505072452 11 281 3.2 3.2 0.00 0.00 0.00 70 1009.4
20260505071948 11 290 1.6 3.2 0.00 0.00 0.00 71 1009.3
20260505071444 11 274 1.6 3.2 0.00 0.00 0.00 72 1009.3
20260505070942 10 264 1.6 1.6 0.00 0.00 0.00 79 1009.3
20260505070439 10 274 1.6 1.6 0.00 0.00 0.00 78 1009.3
20260505065934 10 289 3.2 3.2 0.00 0.00 0.00 77 1009.1
20260505065431 10 254 1.6 1.6 0.00 0.00 0.00 77 1009.1
20260505064927 10 248 1.6 1.6 0.00 0.00 0.00 76 1009.1
20260505064425 10 259 1.6 1.6 0.00 0.00 0.00 76 1009.1
20260505063923 11 264 1.6 1.6 0.00 0.00 0.00 76 1009.0
20260505063419 10 258 1.6 1.6 0.00 0.00 0.00 76 1008.9
20260505062916 11 276 1.6 3.2 0.00 0.00 0.00 73 1009.0
20260505062413 11 277 3.2 3.2 0.00 0.00 0.00 73 1009.0
20260505061909 11 278 1.6 1.6 0.00 0.00 0.00 71 1009.0
20260505061408 11 271 1.6 1.6 0.00 0.00 0.00 72 1009.0
20260505060905 11 270 1.6 1.6 0.00 0.00 0.00 72 1009.1
20260505060402 11 257 1.6 1.6 0.00 0.00 0.00 74 1009.2
20260505055858 11 261 1.6 1.6 0.00 0.00 0.00 75 1008.7
20260505055354 11 258 1.6 1.6 0.00 0.00 0.00 74 1008.9
20260505054851 11 275 1.6 3.2 0.00 0.00 0.00 72 1009.0
20260505054348 11 272 3.2 3.2 0.00 0.00 0.00 73 1008.9
20260505053847 12 313 1.6 3.2 0.00 0.00 0.00 72 1008.7
20260505053344 12 330 3.2 4.8 0.00 0.00 0.00 69 1008.7
20260505052840 12 266 1.6 1.6 0.00 0.00 0.00 70 1009.0
20260505052337 12 297 3.2 3.2 0.00 0.00 0.00 71 1008.9
20260505051834 12 259 1.6 3.2 0.00 0.00 0.00 74 1008.7
20260505051331 12 272 1.6 3.2 0.00 0.00 0.00 69 1008.9
20260505050829 12 257 1.6 3.2 0.00 0.00 0.00 69 1008.9
20260505050328 12 306 4.8 4.8 0.00 0.00 0.00 67 1009.0
20260505041758 13 255 1.6 1.6 0.00 0.00 0.00 64 1008.6
20260505041255 13 329 3.2 3.2 0.00 0.00 0.00 61 1008.5
20260505040752 14 279 1.6 3.2 0.00 0.00 0.00 64 1008.6
20260505040250 15 337 4.8 4.8 0.00 0.00 0.00 58 1008.7
20260505035746 16 352 3.2 3.2 0.00 0.00 0.00 56 1008.6
20260505035242 15 5 3.2 4.8 0.00 0.00 0.00 57 1008.5
20260505034739 15 300 3.2 3.2 0.00 0.00 0.00 56 1008.6
20260505034236 15 290 1.6 3.2 0.00 0.00 0.00 56 1008.5
20260505033733 15 254 0.0 1.6 0.00 0.00 0.00 58 1008.4
20260505033230 15 258 0.0 0.0 0.00 0.00 0.00 59 1008.4
20260505032728 16 251 0.0 1.6 0.00 0.00 0.00 55 1008.2
20260505032224 16 234 0.0 0.0 0.00 0.00 0.00 53 1008.4
20260505031721 16 272 3.2 3.2 0.00 0.00 0.00 53 1008.1
20260505031217 17 259 1.6 3.2 0.00 0.00 0.00 48 1008.0
20260505030714 17 243 0.0 1.6 0.00 0.00 0.00 49 1008.1
20260505030210 18 240 0.0 0.0 0.00 0.00 0.00 44 1008.2
20260505025706 18 270 0.0 0.0 0.00 0.00 0.00 45 1007.9
20260505025205 18 196 0.0 0.0 0.00 0.00 0.00 45 1007.9
20260505024703 17 309 0.0 1.6 0.00 0.00 0.00 47 1007.9
20260505024200 18 246 1.6 1.6 0.00 0.00 0.00 47 1007.8
20260505023657 18 228 0.0 0.0 0.00 0.00 0.00 44 1007.8
20260505023154 18 235 0.0 0.0 0.00 0.00 0.00 45 1007.7
20260505022652 19 235 1.6 1.6 0.00 0.00 0.00 43 1007.8
20260505022149 20 331 4.8 4.8 0.00 0.00 0.00 40 1007.5
20260505021645 20 48 3.2 4.8 0.00 0.00 0.00 38 1007.8
20260505021142 20 38 1.6 1.6 0.00 0.00 0.00 39 1007.7
20260505020637 20 35 3.2 3.2 0.00 0.00 0.00 36 1007.7
20260505020134 20 13 3.2 4.8 0.00 0.00 0.00 35 1007.7
20260505015631 21 257 1.6 1.6 0.00 0.00 0.00 36 1007.7
20260505015127 21 296 3.2 3.2 0.00 0.00 0.00 36 1007.7
20260505014624 21 332 3.2 4.8 0.00 0.00 0.00 34 1007.8
20260505014121 21 358 6.4 9.7 0.00 0.00 0.00 34 1007.7
20260505013619 21 40 3.2 3.2 0.00 0.00 0.00 32 1007.5
20260505013116 21 291 3.2 3.2 0.00 0.00 0.00 31 1007.7
20260505012614 22 243 3.2 3.2 0.00 0.00 0.00 30 1007.7
20260505012111 22 236 6.4 9.7 0.00 0.00 0.00 32 1007.7
20260505011606 22 253 1.6 3.2 0.00 0.00 0.00 33 1007.7
20260505011104 22 242 3.2 4.8 0.00 0.00 0.00 30 1007.7
20260505010605 23 229 1.6 3.2 0.00 0.00 0.00 32 1007.7
20260505005558 22 277 4.8 6.4 0.00 0.00 0.00 31 1007.8
20260505005055 22 356 6.4 9.7 0.00 0.00 0.00 30 1007.8
20260505004552 23 291 3.2 3.2 0.00 0.00 0.00 30 1007.8
20260505004049 23 248 3.2 3.2 0.00 0.00 0.00 30 1007.9
20260505003546 23 306 4.8 4.8 0.00 0.00 0.00 30 1007.9
20260505003043 23 5 8.0 11.3 0.00 0.00 0.00 28 1007.9
20260505002544 23 248 1.6 1.6 0.00 0.00 0.00 30 1007.7
20260505002043 23 235 3.2 3.2 0.00 0.00 0.00 31 1007.9
20260505001540 23 298 6.4 6.4 0.00 0.00 0.00 29 1007.7
20260505001037 23 14 1.6 3.2 0.00 0.00 0.00 30 1007.9
20260505000534 23 341 4.8 6.4 0.00 0.00 0.00 28 1007.9
20260505000032 23 312 3.2 4.8 0.00 0.00 0.00 29 1007.9
20260504235529 23 42 9.7 16.1 0.00 0.00 0.00 27 1007.8
20260504235025 23 312 9.7 12.9 0.00 0.00 0.00 27 1007.5
20260504234522 23 235 1.6 3.2 0.00 0.00 0.00 32 1008.0
20260504234019 23 115 1.6 3.2 0.00 0.00 0.00 29 1007.9
20260504233514 23 357 6.4 11.3 0.00 0.00 0.00 29 1007.9
20260504233012 23 316 6.4 6.4 0.00 0.00 0.00 27 1007.8
20260504232509 23 28 3.2 11.3 0.00 0.00 0.00 31 1008.0
20260504232006 24 12 8.0 9.7 0.00 0.00 0.00 30 1008.1
20260504231502 23 261 4.8 6.4 0.00 0.00 0.00 30 1007.8
20260504230959 24 304 6.4 6.4 0.00 0.00 0.00 31 1008.1
20260504230455 24 22 6.4 9.7 0.00 0.00 0.00 30 1008.0
20260504225954 24 246 4.8 6.4 0.00 0.00 0.00 31 1007.8
20260504225450 24 354 6.4 9.7 0.00 0.00 0.00 30 1007.9
20260504224948 24 347 14.5 17.7 0.00 0.00 0.00 31 1008.0
20260504224444 23 16 16.1 20.9 0.00 0.00 0.00 31 1008.2
20260504223941 24 282 11.3 16.1 0.00 0.00 0.00 31 1008.0
20260504223437 24 14 8.0 9.7 0.00 0.00 0.00 33 1008.3
20260504222933 24 3 3.2 6.4 0.00 0.00 0.00 30 1008.2
20260504222431 24 290 6.4 9.7 0.00 0.00 0.00 31 1008.2
20260504221929 24 55 12.9 17.7 0.00 0.00 0.00 30 1008.3
20260504221425 25 6 6.4 9.7 0.00 0.00 0.00 31 1008.2
20260504220922 25 183 0.0 1.6 0.00 0.00 0.00 34 1008.3
20260504220419 25 208 3.2 4.8 0.00 0.00 0.00 33 1008.3
20260504215916 24 36 6.4 11.3 0.00 0.00 0.00 31 1008.5
20260504215413 24 12 6.4 6.4 0.00 0.00 0.00 32 1008.6
20260504214909 24 352 1.6 3.2 0.00 0.00 0.00 33 1008.5
20260504214406 24 323 6.4 9.7 0.00 0.00 0.00 31 1008.6
20260504213903 25 210 1.6 1.6 0.00 0.00 0.00 32 1008.6
20260504213358 24 275 1.6 3.2 0.00 0.00 0.00 35 1008.6
20260504212856 25 319 9.7 11.3 0.00 0.00 0.00 29 1008.9
20260504212351 24 221 4.8 6.4 0.00 0.00 0.00 32 1008.5
20260504211850 24 317 6.4 9.7 0.00 0.00 0.00 31 1009.0
20260504211345 24 238 4.8 9.7 0.00 0.00 0.00 30 1008.7
20260504210843 24 339 11.3 14.5 0.00 0.00 0.00 28 1008.9
20260504210340 24 57 6.4 9.7 0.00 0.00 0.00 31 1008.9
20260504205837 24 12 12.9 20.9 0.00 0.00 0.00 27 1008.9
20260504205335 24 28 11.3 14.5 0.00 0.00 0.00 29 1008.7
20260504204833 24 307 11.3 14.5 0.00 0.00 0.00 28 1008.7
20260504204331 24 354 9.7 14.5 0.00 0.00 0.00 28 1008.9
20260504203830 24 246 6.4 11.3 0.00 0.00 0.00 30 1008.5
20260504203327 24 335 11.3 14.5 0.00 0.00 0.00 30 1008.7
20260504202822 24 15 16.1 22.5 0.00 0.00 0.00 27 1008.7
20260504202320 24 27 11.3 14.5 0.00 0.00 0.00 30 1008.6
20260504201816 25 11 6.4 11.3 0.00 0.00 0.00 30 1008.5
20260504201314 24 173 3.2 3.2 0.00 0.00 0.00 29 1008.6
20260504200811 25 35 14.5 24.1 0.00 0.00 0.00 29 1008.9
20260504200307 25 342 9.7 12.9 0.00 0.00 0.00 29 1008.7
20260504195803 25 355 9.7 12.9 0.00 0.00 0.00 29 1008.7
20260504195259 24 281 6.4 9.7 0.00 0.00 0.00 29 1008.7
20260504194756 24 12 16.1 20.9 0.00 0.00 0.00 28 1008.7
20260504194253 25 17 9.7 11.3 0.00 0.00 0.00 28 1008.7
20260504193749 24 65 1.6 4.8 0.00 0.00 0.00 32 1008.9
20260504193246 24 16 4.8 6.4 0.00 0.00 0.00 38 1008.9